Location: Cooper Lake State Park
(33.3431°N, 95.6813°W)
Time: 21:52:58
(UTC-05:00)

N. Korean satellite - Visible Passes

Search period start: 18 October 2018 00:00
Search period end: 28 October 2018 00:00
Orbit: 459 x 510 km, 97.2° (Epoch: 17 October)

Date Brightness Start Highest point End Pass type
(mag) Time Alt. Az. Time Alt. Az. Time Alt. Az.
18 Oct 8.1 19:24:58 10° S 19:28:28 42° W 19:32:02 10° NNW visible
19 Oct 9.9 06:56:35 10° NE 06:59:16 19° E 07:01:54 10° SE visible
20 Oct 10.5 20:12:26 10° WSW 20:13:17 11° W 20:14:08 10° W visible
21 Oct 9.4 19:45:45 10° SSW 19:48:42 22° W 19:51:42 10° NW visible
22 Oct 7.8 19:20:38 10° S 19:24:13 48° W 19:27:51 10° NNW visible
23 Oct 10.0 06:52:34 10° NE 06:54:58 17° E 06:57:20 10° SE visible
24 Oct 10.3 20:07:26 10° WSW 20:08:59 12° W 20:10:31 10° WNW visible
25 Oct 9.2 19:41:18 10° SSW 19:44:25 25° W 19:47:34 10° NW visible
26 Oct 8.8 07:11:57 10° NNE 07:15:10 31° E 07:18:20 10° SSE visible
26 Oct 7.5 19:16:17 10° S 19:19:56 56° W 19:23:36 10° NNW visible
27 Oct 10.0 06:48:33 10° ENE 06:50:36 15° E 06:52:39 10° SE visible
